Location: Fort Wayne
(41.1310°N, 85.1290°W)
Time: 21:45:59
(UTC-04:00)

Gbstr 26 Del rocket - Visible Passes

Search period start: 24 June 2016 00:00
Search period end: 04 July 2016 00:00
Orbit: 493 x 1267 km, 51.8° (Epoch: 24 June)

Date Brightness Start Highest point End Pass type
(mag) Time Alt. Az. Time Alt. Az. Time Alt. Az.
24 Jun 4.3 04:24:40 18° S 04:26:21 24° SE 04:29:25 10° E visible
25 Jun 3.8 04:20:43 24° S 04:22:13 32° SE 04:25:35 10° ENE visible
26 Jun 3.3 04:16:43 30° S 04:18:05 43° SE 04:21:40 10° ENE visible
27 Jun 2.8 04:12:40 37° SSW 04:13:59 60° SE 04:17:41 10° ENE visible
28 Jun 2.6 04:08:35 40° SW 04:09:54 81° SE 04:13:39 10° NE visible
29 Jun 2.7 04:04:26 38° WSW 04:05:50 78° NW 04:09:35 10° NE visible
30 Jun 5.3 02:17:42 12° E 02:17:42 12° E 02:18:06 10° E visible
30 Jun 3.0 04:00:16 34° W 04:01:47 60° NNW 04:05:30 10° NE visible
01 Jul 5.1 02:13:30 15° E 02:13:30 15° E 02:14:23 10° ENE visible
01 Jul 3.5 03:56:03 28° W 03:57:45 47° NNW 04:01:24 10° NE visible
02 Jul 4.9 02:09:14 19° E 02:09:14 19° E 02:10:32 10° ENE visible
02 Jul 3.9 03:51:47 23° W 03:53:43 38° NNW 03:57:16 10° NE visible
03 Jul 4.6 02:04:56 24° ENE 02:04:56 24° ENE 02:06:36 10° ENE visible
03 Jul 4.2 03:47:28 19° WNW 03:49:43 32° NNW 03:53:09 10° NE visible
03 Jul 5.3 05:35:02 10° NW 05:37:30 16° N 05:39:59 10° NE visible
